When you browse on this site, cookies collect data to enhance your experience and personalize the content and advertising you see.
Visit our Privacy Policy to learn more. By continuing to use the site, you agree to this use of cookies and data.
  • In Spain
  • List of Countries
  • For 7 days
  • Water Temperature
  • Weather Map
  • Weather Widgets
  • user-avatar
    Login

    Hourly Weather Viedma

    Today, 23 January, Thursday

    Time Temperature Precipitation Wind Pressure Humidity
    00:00 +27°C° 0 mm 8 mps 754 mmHg 46%
    01:00 +26°C° 0 mm 8 mps 754 mmHg 50%
    02:00 +26°C° 0 mm 7 mps 754 mmHg 55%
    03:00 +26°C° 0 mm 7 mps 754 mmHg 50%
    04:00 +27°C° 0 mm 6 mps 754 mmHg 46%
    05:00 +27°C° 0 mm 6 mps 754 mmHg 41%
    06:00 +29°C° 0 mm 7 mps 754 mmHg 35%
    07:00 +32°C° 0 mm 8 mps 754 mmHg 29%
    08:00 +34°C° 0 mm 9 mps 754 mmHg 23%
    09:00 +37°C° 0 mm 9 mps 753 mmHg 20%
    10:00 +39°C° 0 mm 9 mps 753 mmHg 16%
    11:00 +42°C° 0 mm 9 mps 753 mmHg 13%
    12:00 +42°C° 0 mm 9 mps 752 mmHg 13%
    13:00 +43°C° 0 mm 8 mps 751 mmHg 12%
    14:00 +44°C° 0 mm 8 mps 750 mmHg 12%
    15:00 +40°C° 0.1 mm 7 mps 750 mmHg 19%
    16:00 +36°C° 0.1 mm 6 mps 749 mmHg 26%
    17:00 +33°C° 0.1 mm 6 mps 748 mmHg 33%
    18:00 +30°C° 0.5 mm 6 mps 748 mmHg 42%
    19:00 +28°C° 0.5 mm 5 mps 749 mmHg 51%
    20:00 +25°C° 0.5 mm 5 mps 749 mmHg 60%
    21:00 +25°C° 0 mm 4 mps 749 mmHg 63%
    22:00 +24°C° 0 mm 3 mps 750 mmHg 67%
    23:00 +24°C° 0 mm 1 mps 751 mmHg 70%

    Tomorrow, 24 January, Friday

    Time Temperature Precipitation Wind Pressure Humidity
    00:00 +24°C° 0 mm 3 mps 751 mmHg 66%
    01:00 +23°C° 0 mm 5 mps 751 mmHg 62%
    02:00 +22°C° 0 mm 7 mps 752 mmHg 59%
    03:00 +22°C° 0 mm 7 mps 753 mmHg 54%
    04:00 +21°C° 0 mm 8 mps 753 mmHg 48%
    05:00 +20°C° 0 mm 8 mps 754 mmHg 43%
    06:00 +21°C° 0 mm 8 mps 754 mmHg 37%
    07:00 +22°C° 0 mm 7 mps 755 mmHg 31%
    08:00 +23°C° 0 mm 6 mps 756 mmHg 25%
    09:00 +25°C° 0 mm 5 mps 755 mmHg 23%
    10:00 +26°C° 0 mm 4 mps 755 mmHg 22%
    11:00 +27°C° 0 mm 3 mps 755 mmHg 20%
    12:00 +27°C° 0 mm 4 mps 755 mmHg 19%
    13:00 +28°C° 0 mm 4 mps 755 mmHg 18%
    14:00 +29°C° 0 mm 5 mps 754 mmHg 17%
    15:00 +29°C° 0 mm 4 mps 754 mmHg 17%
    16:00 +30°C° 0 mm 4 mps 753 mmHg 17%
    17:00 +30°C° 0 mm 3 mps 753 mmHg 17%
    18:00 +27°C° 0 mm 4 mps 753 mmHg 24%
    19:00 +25°C° 0 mm 5 mps 753 mmHg 31%
    20:00 +21°C° 0 mm 6 mps 752 mmHg 38%
    21:00 +20°C° 0 mm 5 mps 752 mmHg 42%
    22:00 +20°C° 0 mm 4 mps 752 mmHg 46%
    23:00 +19°C° 0 mm 3 mps 752 mmHg 50%

    Day after tomorrow, 25 January, Saturday

    Time Temperature Precipitation Wind Pressure Humidity
    00:00 +19°C° 0 mm 4 mps 752 mmHg 51%
    01:00 +19°C° 0 mm 5 mps 753 mmHg 53%
    02:00 +20°C° 0 mm 6 mps 753 mmHg 54%
    03:00 +19°C° 0 mm 5 mps 753 mmHg 56%
    04:00 +19°C° 0 mm 4 mps 753 mmHg 58%
    05:00 +18°C° 0 mm 3 mps 753 mmHg 60%
    06:00 +20°C° 0 mm 5 mps 753 mmHg 51%
    07:00 +22°C° 0 mm 6 mps 753 mmHg 43%
    08:00 +24°C° 0 mm 8 mps 753 mmHg 34%
    09:00 +26°C° 0 mm 8 mps 753 mmHg 32%
    10:00 +26°C° 0 mm 8 mps 753 mmHg 30%
    11:00 +27°C° 0 mm 8 mps 753 mmHg 28%
    12:00 +28°C° 0 mm 7 mps 753 mmHg 27%
    13:00 +28°C° 0 mm 7 mps 753 mmHg 26%
    14:00 +29°C° 0 mm 7 mps 753 mmHg 25%
    15:00 +28°C° 0 mm 6 mps 753 mmHg 26%
    16:00 +28°C° 0 mm 5 mps 752 mmHg 28%
    17:00 +27°C° 0 mm 4 mps 752 mmHg 29%
    18:00 +25°C° 0 mm 4 mps 752 mmHg 37%
    19:00 +23°C° 0 mm 4 mps 752 mmHg 45%
    20:00 +21°C° 0 mm 4 mps 752 mmHg 53%
    21:00 +20°C° 0 mm 5 mps 752 mmHg 55%
    22:00 +20°C° 0 mm 5 mps 751 mmHg 58%
    23:00 +19°C° 0 mm 5 mps 751 mmHg 61%

    26 January, Sunday

    Time Temperature Precipitation Wind Pressure Humidity
    00:00 +19°C° 0 mm 5 mps 751 mmHg 63%
    01:00 +18°C° 0 mm 4 mps 751 mmHg 65%
    02:00 +18°C° 0 mm 3 mps 751 mmHg 67%
    03:00 +18°C° 0 mm 4 mps 751 mmHg 63%
    04:00 +19°C° 0 mm 4 mps 751 mmHg 59%
    05:00 +19°C° 0 mm 5 mps 751 mmHg 55%
    06:00 +21°C° 0 mm 7 mps 751 mmHg 46%
    07:00 +23°C° 0 mm 8 mps 752 mmHg 37%
    08:00 +26°C° 0 mm 10 mps 752 mmHg 28%
    09:00 +26°C° 0 mm 11 mps 752 mmHg 27%
    10:00 +27°C° 0 mm 11 mps 753 mmHg 26%
    11:00 +27°C° 0 mm 12 mps 753 mmHg 25%
    12:00 +27°C° 0 mm 11 mps 753 mmHg 26%
    13:00 +26°C° 0 mm 11 mps 754 mmHg 27%
    14:00 +26°C° 0 mm 10 mps 754 mmHg 28%
    15:00 +24°C° 0 mm 11 mps 755 mmHg 34%
    16:00 +23°C° 0 mm 11 mps 755 mmHg 39%
    17:00 +21°C° 0 mm 11 mps 756 mmHg 44%
    18:00 +19°C° 0 mm 10 mps 756 mmHg 50%
    19:00 +17°C° 0 mm 9 mps 757 mmHg 56%
    20:00 +15°C° 0 mm 8 mps 758 mmHg 62%
    21:00 +15°C° 0 mm 7 mps 758 mmHg 61%
    22:00 +14°C° 0 mm 5 mps 759 mmHg 60%
    23:00 +14°C° 0 mm 3 mps 759 mmHg 59%

    27 January, Monday

    Time Temperature Precipitation Wind Pressure Humidity
    00:00 +13°C° 0 mm 3 mps 759 mmHg 62%
    01:00 +13°C° 0 mm 2 mps 759 mmHg 64%
    02:00 +13°C° 0 mm 1 mps 759 mmHg 66%
    03:00 +12°C° 0 mm 1 mps 760 mmHg 68%
    04:00 +12°C° 0 mm 1 mps 760 mmHg 70%
    05:00 +10°C° 0 mm 0 mps 760 mmHg 72%
    06:00 +14°C° 0 mm 1 mps 761 mmHg 62%
    07:00 +16°C° 0 mm 2 mps 761 mmHg 52%
    08:00 +19°C° 0 mm 3 mps 761 mmHg 42%
    09:00 +21°C° 0 mm 4 mps 761 mmHg 35%
    10:00 +23°C° 0 mm 5 mps 760 mmHg 28%
    11:00 +26°C° 0 mm 6 mps 760 mmHg 22%
    12:00 +28°C° 0 mm 6 mps 759 mmHg 20%
    13:00 +29°C° 0 mm 7 mps 758 mmHg 18%
    14:00 +30°C° 0 mm 7 mps 757 mmHg 17%
    15:00 +32°C° 0 mm 7 mps 756 mmHg 17%
    16:00 +32°C° 0 mm 8 mps 755 mmHg 18%
    17:00 +32°C° 0 mm 8 mps 754 mmHg 18%
    18:00 +28°C° 0 mm 8 mps 754 mmHg 26%
    19:00 +24°C° 0 mm 9 mps 753 mmHg 34%
    20:00 +21°C° 0 mm 9 mps 752 mmHg 43%
    21:00 +21°C° 0 mm 10 mps 752 mmHg 43%
    22:00 +21°C° 0 mm 10 mps 752 mmHg 44%
    23:00 +21°C° 0 mm 10 mps 751 mmHg 44%

    28 January, Tuesday

    Time Temperature Precipitation Wind Pressure Humidity
    00:00 +22°C° 0 mm 9 mps 751 mmHg 41%
    01:00 +22°C° 0 mm 8 mps 751 mmHg 38%
    02:00 +23°C° 0 mm 6 mps 750 mmHg 35%
    03:00 +22°C° 0 mm 5 mps 750 mmHg 35%
    04:00 +22°C° 0 mm 4 mps 750 mmHg 36%
    05:00 +21°C° 0 mm 3 mps 750 mmHg 36%
    06:00 +24°C° 0 mm 3 mps 751 mmHg 34%
    07:00 +26°C° 0 mm 3 mps 751 mmHg 31%
    08:00 +28°C° 0 mm 3 mps 751 mmHg 28%
    09:00 +29°C° 0 mm 3 mps 751 mmHg 27%
    10:00 +30°C° 0 mm 4 mps 751 mmHg 25%
    11:00 +32°C° 0 mm 5 mps 751 mmHg 23%
    12:00 +32°C° 0 mm 5 mps 751 mmHg 23%
    13:00 +32°C° 0 mm 4 mps 750 mmHg 24%
    14:00 +32°C° 0 mm 4 mps 750 mmHg 24%
    15:00 +30°C° 0 mm 5 mps 749 mmHg 27%
    16:00 +29°C° 0 mm 6 mps 749 mmHg 30%
    17:00 +28°C° 0 mm 7 mps 749 mmHg 33%
    18:00 +26°C° 0 mm 7 mps 749 mmHg 39%
    19:00 +23°C° 0 mm 7 mps 749 mmHg 45%
    20:00 +21°C° 0 mm 8 mps 749 mmHg 51%
    21:00 +21°C° 0 mm 7 mps 750 mmHg 52%
    22:00 +21°C° 0 mm 6 mps 750 mmHg 54%
    23:00 +21°C° 0 mm 6 mps 751 mmHg 55%
    Show more